loading
|

OBJECT L, 61237

Orbit data source: Space-Track

OBJECT L, 61237 is a satellite owned by Changzheng H. (CN) in LEO that was launched on Tue, 24 Sep 2024 UTC launched from the Yellow Sea Launch Area, China (YSLA). Unknown objects in Earth's orbit typically refer to objects detected orbiting the Earth but have not yet been identified or cataloged. These objects could be anything from previously untracked satellites, spent rocket stages, debris from satellite collisions, or even natural meteoroids temporarily captured by Earth's gravity.

Loading next visibility...
Next conjunction unknown
Loading greatness...
OBJECT L details
Identifier
61237, 2024-173L
Orbit
LEO
Last TLE update17 hours ago
Origin
Flag of CNChangzheng H. (CN / PRC)
ManufacturerChangzheng H.
MissionSpacecraft
Bus & MotorUnknown bus, Unknown motor
Mass500 kg wet, 500 kg dry
Launch date (UTC)
2024-09-24 (3 weeks ago)
Launch vehicleUnknown
Launch site
Yellow Sea Launch Area, China (YSLA)
Object typeUnknown
Shape & HBRUnknown
Radar Cross SectionLarge (>1 m²)

Expand to show TLE details & history

TLE from 17 hours ago
0 OBJECT L
1 61237U 24173L   24287.88402305  .00035997  00000-0  87376-3 0  9996
2 61237  97.6774   1.6285 0085812 244.2827 114.9539 15.37123222  3076
Epoch: 2024-10-13T21:12Z
Definitive object data (Epoch: 2024-10-13T21:12:59.591Z)
Latitude-0.00005°
Longitude20.4611°
Altitude482.88 km
Speed7.61 km/s
True Right ascension00h 06m 30s
True Declination0° 00' 00"
Sunlit
Object was in full shadow at TLE epoch
Predictive object data (real-time)
Latitude59.04003°
Longitude8.30729°
Altitude523.073 km
Speed7.575 km/s
Apparent Right ascension22h 05m 52s
Apparent Declination12° 36' 11"
Sunlit
Object is in full shadow
Predictive observer data (real-time)
Local Sidereal Time09:13:58
Azimuth344.261° N
Elevation-36.113°
Doppler factor1
Orbital elements
Apogee510.183 km
Perigee392.969 km
Semi-major axis6,829.713 km
Eccentricity0.0085812
Inclination97.6774°
RAAN1.6285°
Arg. of periapsis244.2827°
True anomaly115.84138°
Mean anomaly114.9539°
Eccentric anomaly115.39805°
Mean motion3.84538 °/min
BSTAR0.00087376
Period93.62 mins
No data available

OBJECT L Visibility forecast

Observer location: 39.9160978°, -105.1181434

Span
Click to sort rows by Start time (UTC) header in descending order
Start Az.
Max El. time (UTC)
Max El. Az.
Max El.
End time (UTC)
End Az.
6 mins2024-10-14 18:04:54.041Z7.775° NNE2024-10-14 18:07:54.041Z336.357° NNW41.132°2024-10-14 18:10:54.041Z201.826° SSW
5 mins2024-10-15 04:36:54.041Z123.66° SE2024-10-15 04:38:54.041Z68.731° E29.401°2024-10-15 04:41:54.041Z8.438° NNE